Погода в Вышестеблиевской

Россия / Краснодарский край     45°11′37″N   36°59′52″E
темп.,
°C
ветер,
м/с
пор.,
м/с
влажн.,
%
обл.,
%
осадки,
мм/ч
давл.,
гПа
погр.,
м
9 мая, вс
вс900:00+13сз81291100 0.1 1011612
03:00+12ссз101383100 0.5 1012732
06:00+11ссз91174100 0.8 10151059
09:00+10ссз101269100 1.4 10181297
12:00+11ссз9116050 0.1 10201549
15:00+13ссз910475 0.1 10211740
18:00+13сз710445 0.0 10232075
21:00+11сз48575 0.0 1024293
10 мая, пн
пн1000:00+11ссз595656 0.1 1025411
03:00+10ссз58594 0.4 1025368
06:00+10ссз58573 0.0 1025456
09:00+12ссз79485 0.1 10251983
12:00+13ссз88465 0.0 10251881
15:00+13сз7847100 0.0 10241577
18:00+13зсз6951100 0.0 10221350
21:00+12з71053100 0.0 1021500
11 мая, вт
вт1100:00+12з81163100 0.1 1018493
03:00+12з91365100 0.1 1016916
06:00+12зсз101463100 0.1 10151580
09:00+10з91184100 1.0 10151019
12:00+11з81088100 1.9 1015828
15:00+11зюз91186100 3.1 1015694
18:00+10юз6990100 2.3 1015482
21:00+11ююз6988100 3.7 1015538
12 мая, ср
ср1200:00+11ююз5885100 0.4 1015477
03:00+11ююз6986100 0.9 1014503
06:00+12ю71081100 0.8 1015599
09:00+12ююв4778100 1.1 1015679
12:00+14ю566391 0.0 1016826
15:00+15ю55535 0.0 1016618
18:00+15ю11515 0.0 1015372
21:00+12ссв44700 0.0 101477
13 мая, чт
чт1300:00+13св35840 0.0 101380
03:00+12всв348989 0.0 101278
06:00+12всв358956 0.0 1012102
09:00+18в5665100 0.0 1011239
12:00+23вюв5645100 0.0 1010439
15:00+24юв554799 0.0 1010646
18:00+21ююз34511 0.0 1010148
21:00+17ю225457 0.0 101111